Total_Precipitation_Accumulation
0.00 0.00 0.01 0.01 0.02 0.02 0.01 0.00 0.00 0.00 0.01 0.00 0.00 0.00 0.00 0.00 0.00 0.00 0.00 0.00 0.00 0.00 0.00 0.00 0.00 0.00 0.00 0.00 0.00 0.00 0.00 0.00 0.00 0.00 0.00 0.00 0.00 0.00 0.00 0.00 0.00 0.00 0.00 0.00 0.00
0.00 0.00 0.00 0.00 0.00 0.01 0.02 0.01 0.00 0.00 0.00 0.00 0.00 0.00 0.00 0.00 0.00 0.00 0.00 0.00 0.00 0.00 0.00 0.00 0.00 0.00 0.00 0.00 0.00 0.00 0.00 0.00 0.00 0.00 0.00 0.00 0.00 0.00 0.00 0.00 0.00 0.00 0.00 0.00 0.00
0.00 0.00 0.00 0.00 0.00 0.00 0.00 0.01 0.01 0.00 0.00 0.00 0.00 0.00 0.00 0.00 0.00 0.00 0.00 0.00 0.00 0.00 0.00 0.00 0.00 0.00 0.00 0.00 0.00 0.00 0.00 0.00 0.00 0.00 0.00 0.00 0.00 0.00 0.00 0.00 0.00 0.00 0.00 0.00 0.00
0.00 0.00 0.00 0.00 0.00 0.00 0.00 0.00 0.00 0.00 0.01 0.01 0.01 0.00 0.00 0.01 0.00 0.00 0.00 0.00 0.00 0.00 0.00 0.00 0.00 0.00 0.00 0.00 0.00 0.00 0.00 0.00 0.00 0.00 0.00 0.00 0.00 0.00 0.00 0.00 0.00 0.00 0.00 0.00 0.00
0.00 0.01 0.01 0.01 0.01 0.00 0.00 0.00 0.00 0.00 0.01 0.01 0.02 0.02 0.03 0.02 0.00 0.00 0.00 0.00 0.00 0.00 0.00 0.00 0.00 0.00 0.00 0.00 0.00 0.00 0.00 0.00 0.00 0.00 0.00 0.00 0.00 0.00 0.00 0.00 0.00 0.00 0.00 0.00 0.00
0.01 0.01 0.01 0.01 0.01 0.01 0.00 0.00 0.00 0.00 0.00 0.01 0.04 0.07 0.07 0.03 0.00 0.00 0.00 0.00 0.00 0.00 0.00 0.00 0.00 0.00 0.00 0.00 0.00 0.00 0.00 0.00 0.00 0.00 0.00 0.00 0.00 0.00 0.00 0.00 0.00 0.00 0.00 0.00 0.00
0.01 0.02 0.01 0.01 0.01 0.01 0.01 0.00 0.00 0.01 0.00 0.01 0.04 0.10 0.05 0.00 0.00 0.00 0.00 0.00 0.00 0.00 0.00 0.00 0.00 0.00 0.00 0.00 0.00 0.00 0.00 0.00 0.00 0.00 0.00 0.00 0.00 0.00 0.00 0.00 0.00 0.00 0.00 0.00 0.00
0.02 0.02 0.02 0.02 0.01 0.01 0.00 0.00 0.00 0.00 0.00 0.01 0.10 0.16 0.08 0.00 0.00 0.00 0.00 0.00 0.00 0.00 0.00 0.00 0.00 0.00 0.00 0.00 0.00 0.00 0.00 0.00 0.00 0.00 0.00 0.00 0.00 0.00 0.00 0.00 0.00 0.00 0.00 0.00 0.00
0.04 0.04 0.03 0.02 0.01 0.01 0.01 0.01 0.00 0.00 0.00 0.02 0.08 0.16 0.05 0.00 0.00 0.00 0.00 0.00 0.00 0.00 0.00 0.00 0.00 0.00 0.00 0.00 0.00 0.00 0.00 0.00 0.00 0.00 0.00 0.00 0.00 0.00 0.00 0.00 0.00 0.00 0.00 0.00 0.00
0.05 0.06 0.05 0.06 0.04 0.03 0.01 0.00 0.00 0.00 0.00 0.03 0.07 0.07 0.01 0.00 0.00 0.00 0.00 0.00 0.00 0.00 0.00 0.00 0.00 0.00 0.00 0.00 0.00 0.00 0.00 0.00 0.00 0.00 0.00 0.00 0.00 0.00 0.00 0.00 0.00 0.00 0.00 0.00 0.00
0.08 0.08 0.08 0.08 0.06 0.08 0.02 0.00 0.01 0.02 0.00 0.01 0.01 0.01 0.00 0.00 0.00 0.00 0.00 0.00 0.00 0.00 0.00 0.00 0.01 0.00 0.00 0.00 0.00 0.00 0.00 0.00 0.00 0.00 0.00 0.00 0.00 0.00 0.00 0.00 0.00 0.00 0.00 0.00 0.00
0.12 0.12 0.07 0.06 0.03 0.07 0.06 0.07 0.15 0.31 0.22 0.00 0.01 0.00 0.01 0.00 0.00 0.00 0.00 0.01 0.00 0.00 0.01 0.01 0.00 0.00 0.00 0.00 0.00 0.00 0.00 0.00 0.00 0.00 0.00 0.00 0.00 0.00 0.00 0.00 0.00 0.00 0.00 0.00 0.00
0.15 0.15 0.11 0.11 0.07 0.03 0.07 0.18 0.12 0.16 0.38 0.03 0.01 0.02 0.02 0.01 0.01 0.00 0.00 0.01 0.02 0.00 0.01 0.01 0.00 0.00 0.00 0.00 0.00 0.00 0.00 0.00 0.00 0.00 0.00 0.00 0.00 0.00 0.00 0.00 0.00 0.00 0.00 0.00 0.00
0.11 0.21 0.16 0.12 0.20 0.19 0.22 0.18 0.09 0.42 0.12 0.04 0.02 0.01 0.02 0.03 0.02 0.00 0.00 0.00 0.04 0.03 0.03 0.07 0.00 0.00 0.00 0.00 0.00 0.00 0.00 0.00 0.00 0.00 0.00 0.00 0.00 0.00 0.00 0.00 0.00 0.00 0.00 0.00 0.00
0.07 0.08 0.12 0.19 0.21 0.64 0.47 0.11 0.20 0.13 0.07 0.07 0.01 0.00 0.05 0.02 0.01 0.00 0.00 0.00 0.01 0.06 0.20 0.05 0.00 0.00 0.00 0.00 0.00 0.00 0.00 0.00 0.00 0.00 0.00 0.00 0.00 0.00 0.00 0.00 0.00 0.00 0.00 0.00 0.00
0.07 0.04 0.03 0.07 0.24 0.23 0.12 0.13 0.26 0.18 0.08 0.07 0.01 0.00 0.01 0.01 0.00 0.00 0.00 0.00 0.00 0.03 0.14 0.02 0.00 0.00 0.00 0.00 0.00 0.00 0.00 0.00 0.00 0.00 0.00 0.00 0.00 0.00 0.00 0.00 0.00 0.00 0.00 0.00 0.00
0.05 0.03 0.01 0.02 0.21 0.16 0.03 0.06 0.11 0.11 0.01 0.02 0.01 0.01 0.01 0.00 0.00 0.02 0.05 0.01 0.02 0.05 0.10 0.03 0.01 0.01 0.01 0.02 0.01 0.02 0.04 0.07 0.08 0.05 0.01 0.00 0.00 0.00 0.00 0.00 0.00 0.00 0.00 0.00 0.00
0.04 0.03 0.02 0.02 0.02 0.06 0.08 0.13 0.11 0.01 0.00 0.00 0.02 0.03 0.07 0.03 0.01 0.01 0.06 0.07 0.05 0.02 0.05 0.03 0.01 0.01 0.00 0.01 0.02 0.02 0.06 0.08 0.09 0.02 0.00 0.00 0.00 0.00 0.00 0.00 0.00 0.00 0.00 0.00 0.00
0.02 0.05 0.10 0.06 0.07 0.10 0.16 0.14 0.04 0.00 0.00 0.00 0.01 0.07 0.17 0.17 0.06 0.05 0.17 0.22 0.19 0.10 0.22 0.18 0.05 0.00 0.00 0.00 0.06 0.09 0.15 0.02 0.09 0.03 0.08 0.01 0.00 0.00 0.00 0.00 0.00 0.00 0.00 0.00 0.00
0.06 0.13 0.06 0.10 0.21 0.20 0.16 0.04 0.01 0.00 0.00 0.00 0.03 0.04 0.02 0.14 0.24 0.22 0.28 0.35 0.23 0.08 0.15 0.28 0.22 0.01 0.00 0.00 0.02 0.08 0.10 0.24 0.39 0.56 0.32 0.04 0.00 0.00 0.00 0.00 0.00 0.00 0.00 0.00 0.00
0.12 0.13 0.10 0.19 0.24 0.19 0.09 0.02 0.01 0.00 0.01 0.00 0.00 0.02 0.04 0.08 0.25 0.42 0.39 0.26 0.28 0.08 0.08 0.16 0.33 0.16 0.01 0.01 0.02 0.07 0.16 0.39 0.59 0.57 0.31 0.11 0.01 0.00 0.00 0.00 0.00 0.00 0.00 0.00 0.00
0.16 0.12 0.29 0.32 0.14 0.07 0.02 0.01 0.01 0.00 0.00 0.00 0.00 0.00 0.01 0.02 0.06 0.13 0.26 0.32 0.28 0.20 0.21 0.23 0.30 0.17 0.02 0.00 0.01 0.09 0.16 0.26 0.82 0.86 0.93 0.74 0.31 0.00 0.00 0.00 0.00 0.00 0.00 0.00 0.00
0.13 0.09 0.20 0.39 0.22 0.08 0.03 0.02 0.02 0.01 0.00 0.00 0.00 0.00 0.00 0.01 0.12 0.07 0.04 0.11 0.28 0.41 0.43 0.29 0.42 0.29 0.09 0.06 0.01 0.28 0.43 0.35 0.40 0.60 0.51 0.54 0.29 0.00 0.00 0.00 0.00 0.00 0.00 0.00 0.00
0.12 0.07 0.07 0.11 0.11 0.09 0.12 0.09 0.03 0.00 0.01 0.00 0.00 0.00 0.00 0.00 0.04 0.08 0.00 0.00 0.03 0.12 0.25 0.48 0.32 0.26 0.15 0.08 0.07 0.09 0.08 0.17 0.39 0.53 0.53 0.33 0.08 0.00 0.00 0.00 0.00 0.00 0.00 0.00 0.00
0.13 0.05 0.06 0.05 0.03 0.02 0.06 0.08 0.05 0.03 0.05 0.04 0.06 0.06 0.08 0.06 0.01 0.01 0.00 0.00 0.00 0.02 0.18 0.49 0.36 0.12 0.08 0.01 0.00 0.02 0.00 0.00 0.10 0.20 0.34 0.20 0.07 0.00 0.00 0.00 0.00 0.00 0.00 0.00 0.00
0.07 0.03 0.07 0.08 0.08 0.11 0.11 0.06 0.03 0.02 0.07 0.04 0.11 0.06 0.07 0.07 0.06 0.04 0.04 0.04 0.05 0.05 0.25 0.43 0.30 0.16 0.15 0.01 0.02 0.07 0.02 0.01 0.00 0.00 0.02 0.01 0.02 0.01 0.00 0.00 0.00 0.00 0.00 0.00 0.00
0.04 0.06 0.20 0.12 0.07 0.10 0.13 0.13 0.08 0.11 0.09 0.06 0.09 0.15 0.10 0.04 0.09 0.06 0.05 0.03 0.04 0.09 0.15 0.37 0.36 0.24 0.21 0.03 0.13 0.24 0.03 0.01 0.02 0.00 0.01 0.01 0.00 0.00 0.00 0.00 0.00 0.00 0.00 0.00 0.00